COSMOS 2433 (720)

Last updated on Wed Nov 05 2025 00:03:19 GMT+0000 (Coordinated Universal Time)

1 32275U 07052A 25308.14101435 -.00000015 00000+0 00000+0 0 9995 2 32275 65.7032 323.5029 0005949 244.1158 115.8725 2.13103996140266
UTC large
Height (km)
Speed (km/s)
/
Latitude / Longitude
Inclination (degrees)
Orbital Period (minutes)
Azimuth
Elevation
Range (km)
Doppler Factor

Next 0 passes for location: London (51.5072 / 0.1276)

Sorry there are no passes over London.